Weather History for KPSM - September, 2012

Change the Weather History Date:

Saturday, September 8, 2012

  Actual Average Record
Temperature  
Mean Temperature 72 °F -  
Max Temperature 81 °F 73 °F 95 °F (2007)
Min Temperature 64 °F 54 °F 33 °F (1978)
Cooling Degree Days 8    
Growing Degree Days 22 (Base 50)    
Moisture  
Dew Point 68 °F    
Average Humidity 88    
Maximum Humidity 100    
Minimum Humidity 63    
Precipitation  
Precipitation 0.32 in - - ()
Sea Level Pressure  
Sea Level Pressure 29.74 in    
Wind  
Wind Speed 8 mph (SSE)    
Max Wind Speed 23 mph    
Max Gust Speed 32 mph    
Visibility 6 miles    
Events Rain , Thunderstorm    
Averages and records for this station are not official NWS values.
T = Trace of Precipitation, MM = Missing Value Source: NWS Daily Summary

Daily Weather History Graph

Daily Weather History Graph

Search for Another Location

Airport or City:

Trip Planner

Search our weather history database for the weather conditions in past years. The results will help you decide how hot, cold, wet, or windy it might be!

Date:

Astronomy

Sep. 08, 2012 Rise Set
Actual Time 6:15 AM EDT 7:05 PM EDT
Civil Twilight 5:46 AM EDT 7:33 PM EDT
Nautical Twilight 5:12 AM EDT 8:07 PM EDT
Astronomical Twilight 4:36 AM EDT 8:43 PM EDT
Moon 11:36 PM EDT (9/8) 2:06 PM EDT (9/8)
Length of Visible Light 13h 46m
Length of Day
12h 49m
Waning Gibbous, 49% of the Moon is Illuminated
Sep 8
Waning Gibbous
Sep 15
New
Sep 22
First Quarter
Sep 29
Full
Oct 8
Last Quarter

Hourly Weather History & Observations

Time (EDT) Temp. Heat Index Dew Point Humidity Pressure Visibility Wind Dir Wind Speed Gust Speed Precip Events Conditions
12:55 AM 67.8 °F - 67.5 °F 99% 29.87 in 4.0 mi Calm Calm - N/A   Mostly Cloudy
1:46 AM 68.0 °F - 68.0 °F 100% 29.84 in 2.0 mi East 4.6 mph - N/A   Scattered Clouds
1:55 AM 67.5 °F - 67.3 °F 99% 29.86 in 2.0 mi Calm Calm - N/A   Scattered Clouds
2:28 AM 66.2 °F - 66.2 °F 100% 29.89 in 1.0 mi SE 4.6 mph - N/A   Mostly Cloudy
2:55 AM 68.0 °F - 67.8 °F 99% 29.87 in 1.0 mi Calm Calm - N/A   Overcast
3:11 AM 68.0 °F - 68.0 °F 100% 29.87 in 0.8 mi SSE 4.6 mph - N/A   Overcast
3:42 AM 69.8 °F - 69.8 °F 100% 29.87 in 1.0 mi South 6.9 mph - N/A   Overcast
3:55 AM 70.5 °F - 70.2 °F 99% 29.86 in 1.0 mi South 5.8 mph - N/A   Overcast
4:15 AM 69.8 °F - 69.8 °F 100% 29.86 in 1.5 mi South 6.9 mph - N/A   Overcast
4:55 AM 69.6 °F - 69.3 °F 99% 29.84 in 2.0 mi South 9.2 mph - N/A   Overcast
5:55 AM 70.3 °F - 68.9 °F 95% 29.85 in 5.0 mi South 6.9 mph - N/A   Overcast
6:55 AM 71.1 °F - 68.7 °F 92% 29.86 in 6.0 mi South 4.6 mph - N/A   Overcast
7:55 AM 72.0 °F - 68.2 °F 88% 29.85 in 7.0 mi SSW 8.1 mph - N/A   Overcast
8:55 AM 72.7 °F - 68.9 °F 88% 29.84 in 10.0 mi South 8.1 mph - N/A   Overcast
9:55 AM 75.0 °F - 69.3 °F 82% 29.82 in 7.0 mi SSE 9.2 mph - N/A   Overcast
10:45 AM 77.0 °F - 68.0 °F 74% 29.81 in 7.0 mi SSE 15.0 mph - N/A   Mostly Cloudy
10:55 AM 78.4 °F - 68.9 °F 72% 29.80 in 10.0 mi SSE 12.7 mph - N/A   Mostly Cloudy
11:55 AM 79.2 °F - 69.3 °F 72% 29.77 in 10.0 mi SE 18.4 mph - N/A   Mostly Cloudy
12:55 PM 79.7 °F - 68.2 °F 68% 29.75 in 10.0 mi SE 18.4 mph 24.2 mph N/A   Mostly Cloudy
1:55 PM 80.2 °F 82.5 °F 66.7 °F 63% 29.72 in 10.0 mi SSE 23.0 mph 28.8 mph N/A   Mostly Cloudy
2:55 PM 80.2 °F 82.5 °F 66.7 °F 63% 29.70 in 10.0 mi SSE 20.7 mph 29.9 mph N/A   Mostly Cloudy
3:55 PM 77.0 °F - 66.6 °F 70% 29.68 in 10.0 mi SSE 20.7 mph 29.9 mph N/A   Mostly Cloudy
4:55 PM 76.3 °F - 68.4 °F 76% 29.65 in 10.0 mi SSE 19.6 mph 32.2 mph N/A   Mostly Cloudy
5:30 PM 73.4 °F - 68.0 °F 83% 29.65 in 6.0 mi SSE 18.4 mph 25.3 mph N/A Rain Light Rain Showers
5:39 PM 73.4 °F - 68.0 °F 83% 29.64 in 10.0 mi SSE 17.3 mph - N/A   Mostly Cloudy
5:55 PM 73.9 °F - 68.5 °F 83% 29.63 in 7.0 mi SSE 18.4 mph 25.3 mph 0.00 in   Mostly Cloudy
6:29 PM 73.4 °F - 68.0 °F 83% 29.62 in 7.0 mi SSE 13.8 mph - N/A Rain Light Rain Showers
6:47 PM 71.6 °F - 69.8 °F 94% 29.62 in 7.0 mi SE 17.3 mph 28.8 mph N/A   Mostly Cloudy
6:55 PM 72.1 °F - 69.1 °F 90% 29.62 in 7.0 mi SSE 19.6 mph 23.0 mph 0.00 in Thunderstorm Overcast
7:43 PM 73.4 °F - 69.8 °F 88% 29.62 in 7.0 mi SSE 13.8 mph - N/A Rain Light Rain
7:55 PM 72.3 °F - 70.2 °F 93% 29.62 in 7.0 mi SSE 10.4 mph - 0.02 in Rain Light Rain
8:11 PM 71.6 °F - 69.8 °F 94% 29.62 in 10.0 mi SSE 12.7 mph 25.3 mph N/A   Overcast
8:55 PM 72.7 °F - 71.2 °F 95% 29.63 in 10.0 mi South 9.2 mph - N/A   Overcast
9:43 PM 73.4 °F - 68.0 °F 83% 29.65 in 7.0 mi WNW 12.7 mph 21.9 mph N/A Rain Light Rain
9:55 PM 68.5 °F - 66.9 °F 95% 29.65 in 2.0 mi SW 8.1 mph 20.7 mph 0.25 in Rain Rain
10:14 PM 68.0 °F - 66.2 °F 94% 29.67 in 10.0 mi West 12.7 mph - N/A Rain Light Rain
10:40 PM 66.2 °F - 62.6 °F 88% 29.68 in 10.0 mi Variable 6.9 mph - N/A   Overcast
10:55 PM 65.8 °F - 63.5 °F 92% 29.66 in 10.0 mi Variable 5.8 mph - 0.05 in   Overcast
11:55 PM 64.6 °F - 61.5 °F 90% 29.69 in 10.0 mi WSW 8.1 mph - N/A   Overcast